Location: Peebles
(55.6412°N, 3.1714°W)
Time: 19:21:02
(UTC+00:00)

METEOR 2-8 DEB - Visible Passes

Search period start: 28 November 2022 00:00
Search period end: 08 December 2022 00:00
Orbit: 792 x 825 km, 82.5° (Epoch: 23 November)

Date Brightness Start Highest point End Pass type
(mag) Time Alt. Az. Time Alt. Az. Time Alt. Az.
28 Nov ? 03:51:32 19° NNE 03:51:32 19° NNE 03:52:56 10° NNE visible
28 Nov ? 05:32:40 18° NNW 05:32:40 18° NNW 05:34:28 10° N visible
29 Nov ? 03:27:31 14° NNE 03:27:31 14° NNE 03:28:19 10° NNE visible
29 Nov ? 05:08:40 17° N 05:08:40 17° N 05:10:05 10° N visible
30 Nov ? 03:03:27 11° NNE 03:03:27 11° NNE 03:03:38 10° NNE visible
30 Nov ? 04:44:36 15° N 04:44:36 15° N 04:45:39 10° N visible
01 Dec ? 04:20:29 14° N 04:20:29 14° N 04:21:10 10° N visible
01 Dec ? 06:01:37 10° NNW 06:01:37 10° NNW 06:01:40 10° NNW visible
02 Dec ? 03:56:21 12° N 03:56:21 12° N 03:56:38 10° N visible
02 Dec ? 05:37:28 10° NNW 05:37:28 10° NNW 05:37:36 10° NNW visible
03 Dec ? 05:13:18 10° N 05:13:18 10° N 05:13:21 10° N visible
